www.pogodaiklimat.ru

Погода и климат >> Архив погоды >> Индия >> Гуджарат >> Сурат


ПОГОДА в Сурате

  • Прогноз погоды в Сурате
  • Монитор погоды в Сурате

АРХИВ ПОГОДЫ в Сурате

Время (UTC), дата Ветер
(напр.,м/с)
 
Видим.   Явления Облачность Т
(С)
Тd
(С)
f
(%)
Тe
(С)
Тes
(С)
Комфортность P
(гПа)
Po
(гПа)
Тmin
(С)
Tmax
(С)
R
(мм)
R24
(мм)
S
(см)
18 16.01 штиль 0 4000 м ясно +22.0 +13.4 58 +25 +25 комфорт 1015.0 1015.0
21 16.01 С 1 4000 м ясно +20.0 +13.8 67 +23 +23 комфорт 1014.5 1015.0
00 17.01 штиль 0 4000 м ясно +17.6 +13.4 76 +18 +18 1014.1 1014.0
03 17.01 штиль 0 1000 м дымка ясно +16.8 +12.9 78 +17 +19 1015.9 1016.0 +16.0
06 17.01 С 2 4000 м ясно +26.4 +10.4 37 +27 +38 жарко 1016.4 1016.0
09 17.01 В 2 4000 м ясно +30.4 +8.9 26 +30 +40 жарко 1013.3 1013.0
12 17.01 С 2 4000 м ясно +27.6 +10.7 35 +28 +29 жарко 1012.5 1013.0 +31.0
15 17.01 штиль 0 4000 м ясно +22.4 +13.4 57 +25 +25 комфорт 1014.1 1014.0
18 17.01 С 2 4000 м ясно +20.4 +12.6 61 +23 +23 комфорт 1014.4 1014.0
21 17.01 штиль 0 4000 м ясно +19.0 +11.8 63 +20 +20 1013.9 1014.0
00 18.01 штиль 0 4000 м ясно +16.4 +11.2 71 +16 +16 1013.8 1014.0
03 18.01 штиль 0 4000 м мгла ясно +15.8 +10.9 73 +16 +18 1015.8 1016.0 +14.8
06 18.01 В 2 4000 м ясно +28.0 +13.6 41 +30 +41 жарко 1015.8 1016.0
09 18.01 СВ 3 4000 м ясно +33.2 +7.0 20 +31 +40 жарко 1012.8 1013.0
12 18.01 СВ 2 4000 м ясно +32.4 +6.0 19 +30 +31 жарко 1011.9 1012.0 +34.2
15 18.01 штиль 0 4000 м ясно +24.2 +16.0 60 +27 +27 жарко 1013.6 1014.0
18 18.01 штиль 0 4000 м ясно +23.6 +8.7 39 +24 +24 комфорт 1014.0 1014.0
21 18.01 СВ 2 4000 м ясно +23.0 +8.8 40 +24 +24 комфорт 1013.2 1013.0
00 19.01 В 2 4000 м ясно +22.2 +8.7 42 +24 +24 комфорт 1013.1 1013.0
03 19.01 В 3 4000 м ясно +22.6 +6.1 34 +23 +25 комфорт 1015.2 1015.0 +19.2
06 19.01 В 3 4000 м ясно +30.0 +7.1 24 +29 +39 жарко 1016.7 1017.0
09 19.01 штиль 0 4000 м ясно +34.8 +12.6 26 +35 +48 очень
жарко
1013.4 1013.0
12 19.01 С 2 4000 м ясно +30.4 +12.9 34 +31 +32 жарко 1012.7 1013.0 +34.8
15 19.01 штиль 0 4000 м ясно +24.0 +14.6 56 +27 +27 жарко 1014.7 1015.0
18 19.01 штиль 0 4000 м ясно +21.0 +14.5 66 +24 +24 комфорт 1015.7 1016.0
21 19.01 штиль 0 4000 м ясно +19.8 +14.3 71 +22 +22 комфорт 1014.4 1014.0
00 20.01 штиль 0 4000 м ясно +17.2 +12.5 74 +17 +17 1014.7 1015.0
03 20.01 штиль 0 2000 м мгла ясно +19.0 +11.4 61 +20 +22 1016.5 1017.0 +16.6
06 20.01 штиль 0 4000 м ясно +30.2 +11.7 32 +31 +46 жарко 1016.7 1017.0
09 20.01 ЮЗ 1 4000 м ясно +34.4 +13.4 28 +35 +46 очень
жарко
1013.3 1013.0
12 20.01 З 2 4000 м ясно +29.0 +16.9 48 +33 +33 очень
душно
1012.7 1013.0 +34.8
15 20.01 З 3 4000 м ясно +23.6 +14.5 57 +26 +26 жарко 1013.0 1013.0
18 20.01 штиль 0 4000 м ясно +22.0 +15.7 67 +26 +26 душно 1014.4 1014.0
21 20.01 Ю 1 4000 м ясно +20.8 +18.2 85 +26 +26 душно 1013.2 1013.0
00 21.01 штиль 0 1000 м дымка ясно +19.8 +18.2 90 +22 +22 комфорт 1013.0 1013.0
03 21.01 штиль 0 500 м туман 4/0
[Ac trans]
+19.4 +18.4 94 +22 +23 комфорт 1015.2 1015.0 +18.2
06 21.01 ЮЗ 1 2000 м дым {туман} ясно +28.0 +11.7 36 +29 +42 жарко 1015.4 1015.0
09 21.01 З 3 4000 м ясно +28.4 +12.8 38 +30 +38 жарко 1012.4 1012.0
12 21.01 ЮЗ 2 4000 м ясно +27.2 +11.5 38 +28 +29 жарко 1011.1 1011.0 +28.6
15 21.01 ЮЗ 3 4000 м ясно +22.8 +19.0 79 +29 +29 очень
душно
1012.5 1013.0
18 21.01 ЮЗ 3 4000 м ясно +22.2 +18.7 81 +28 +28 душно 1013.7 1014.0
21 21.01 З 2 4000 м ясно +21.2 +18.7 86 +26 +26 душно 1013.1 1013.0
00 22.01 штиль 0 4000 м 8/0
[Ac trans]
+19.0 +17.7 92 +20 +20 1013.2 1013.0
03 22.01 штиль 0 4000 м 6/0
[Ac trans]
+20.4 +16.8 80 +23 +25 комфорт 1015.1 1015.0 +18.6
06 22.01 С 1 4000 м 8/4 600 м
[Sc diur, vesp Ac trans]
+25.4 +13.1 46 +27 +32 жарко 1016.1 1016.0
09 22.01 ЮЗ 2 4000 м 3/3 750 м
[Sc diur, vesp]
+28.0 +15.3 46 +31 +38 душно 1013.9 1014.0
12 22.01 ЮЗ 3 4000 м 3/0
[Ci fib]
+25.6 +15.0 52 +28 +29 жарко 1013.2 1013.0 +28.2
15 22.01 штиль 0 4000 м ясно +22.2 +18.8 81 +28 +28 душно 1014.3 1014.0
18 22.01 штиль 0 4000 м ясно +20.4 +17.8 85 +24 +24 комфорт 1015.2 1015.0
21 22.01 штиль 0 4000 м 4/0 2000 м
[Ac trans]
+20.2 +18.3 89 +23 +23 комфорт 1014.7 1015.0
00 23.01 З 2 4000 м ясно +19.6 +13.3 67 +22 +22 комфорт 1014.7 1015.0
03 23.01 штиль 0 4000 м ясно +19.0 +13.0 68 +20 +23 1016.5 1017.0 +16.6
06 23.01 С 3 4000 м ясно +24.0 +14.6 56 +27 +37 жарко 1017.7 1018.0
09 23.01 З 2 4000 м 1/0
[Ac trans]
+26.6 +13.0 43 +28 +38 жарко 1015.0 1015.0
12 23.01 СЗ 2 4000 м 3/0
[Ac trans]
+24.8 +14.0 51 +27 +28 жарко 1014.5 1015.0 +26.8

 

Местоположение метеостанции Сурат (Гуджарат, Индия): широта 21.20 долгота 72.83 высота над уровнем моря 12 м.

В архиве по умолчанию представлена погода в Сурате за последнюю неделю. Архивные данные за месяц целиком и за предыдущие месяцы, начиная с января 2011 года, Вы можете получить, выбрав интересующий диапазон дат из раскрывающегося списка и нажав кнопку "Ввод!".


*Определитесь, кто Вы:
робот инопланетянин человек

Внимание! Время в таблицах - всемирное. Для получения местного времени необходимо прибавить поправку, которая равна 5.5 ч.

Смотрите также архив погоды в соседних городах и на ближайших метеорологических станциях:

Погода в Валсаде (Гуджарат, Индия) (65 км)
Погода в Бхавнагаре (Гуджарат, Индия) (89 км)
Погода в Махьюве (Гуджарат, Индия) (110 км)
Погода в Бароде (Гуджарат, Индия) (134 км)
Погода в Дахану (Махараштра, Индия) (137 км)
Погода в Нандурбаре (Махараштра, Индия) (148 км)
Погода в Валлаб Видьянагаре (Гуджарат, Индия) (153 км)
Погода в Нашике (Махараштра, Индия) (166 км)
Погода в Амрели (Гуджарат, Индия) (173 км)
Погода в Малегаоне (Махараштра, Индия) (191 км)

Пояснения к столбцам:

Ветер - указаны скорость ветра в м/с - средняя за 10 мин, порывы в срок и между сроками (в фигурных скобках) и направление, откуда дует ветер: С - северный, СВ - северо-восточный, В - восточный, ЮВ - юго-восточный, Ю - южный, ЮЗ - юго-западный, З - западный, СЗ - северо-западный.
Видимость - горизонтальная дальность видимости в метрах или километрах. При видимости от 1 до 10 км при отсутствии осадков обычно наблюдается дымка, при ухудшении видимости до 1 км и менее - туман. В сухую погоду видимость может ухудшаться дымом, пылью или мглою.
Явления - указаны атмосферные явления, наблюдавшиеся в срок или в последний час перед сроком; фигурными скобками обозначены явления, наблюдавшиеся между сроками (за 1-3 часа до срока); квадратными скобками обозначены град или гололедные отложения с указанием их диаметра в мм.
Облачность - указаны через наклонную черту общая и нижняя облачность в баллах и высота нижней границы облаков в метрах; квадратными скобками обозначены формы облаков: Ci - перистые, Cs - перисто-слоистые, Cc - перисто-кучевые, Ac - высококучевые, As - высокослоистые, Sc - слоисто-кучевые, Ns - слоисто-дождевые, Cu - кучевые, Cb - кучево-дождевые. Подробнее классификацию облаков см. в Атласе облаков (PDF).
T - Температура воздуха - температура, измеренная на высоте 2 м над землей.
Td - Температура точки росы - температура, при понижении до которой содержащийся в воздухе водяной пар достигнет насыщения.
f - Относительная влажность воздуха - влажноcть воздуха, измеренная на высоте 2 м над землей.
Te - Эффективная температура - температура, которую ощущает одетый по сезону человек в тени. Характеристика душности погоды. При расчете учитывается влияние влажности воздуха и скорости ветра на теплоощущения человека.
Tes - Эффективная температура на солнце - температура, которую ощущает человек, с поправкой на солнечный нагрев. Характеристика знойности погоды. Зависит от высоты солнца над горизонтом, облачности и скорости ветра. Ночью, в пасмурную погоду, а также при ветре 12 м/с и более поправка равна нулю.
P - Атмосферное давление - приведенное к уровню моря атмосферное давление.
Po - Атмосферное давление - измеренное на уровне метеостанции атмосферное давление.
Tmin - Минимальная температура - минимум температуры воздуха на высоте 2 м над землей.
Tmax - Максимальная температура - максимум температуры воздуха на высоте 2 м над землей.
R - Количество осадков - Количество выпавших осадков за период времени, мм. При наведении курсора мыши на число - период времени, за который выпало указанное количество осадков.
R24 - Количество осадков - Количество выпавших осадков за 24 часа, мм.
S - Снежный покров - Высота снежного покрова, см. При наведении курсора мыши на число - состояние снежного покрова и степень покрытия местности в баллах.